Location: Arpaise
(41.0333°N, 14.7333°E)
Time: 01:29:28
(UTC+00:00)

Meteor 2-3 Rocket - Pass Details

Date: 05 July 2020
Orbit: 843 x 884 km, 81.2° (Epoch: 11 August)

Event Time Altitude Azimuth Distance (km) Brightness Sun altitude
Exits shadow 23:21:02 50° 254° (WSW) 1,079 4.0 -26.2°
Maximum altitude 23:21:47 54° 283° (WNW) 1,034 4.1 -26.2°
Drops below altitude 10° 23:27:22 10° 1° (N) 2,514 7.2 -26.1°
Sets 23:29:54 0° 6° (N) 3,461 8.2 -26.1°
